Showing default

FLOCK 4BE 9, 60514

Orbit data source: Space-Track

FLOCK 4BE 9, 60514 is a payload satellite owned by Planet (US) in SSO that was launched on Fri, 16 Aug 2024 UTC via an FALCON 9 launch vehicle from the Air Force Western Test Range (AFWTR). Payload-class satellites include a variety of spacecraft equipped with specific instruments for various scientific and technological missions. These include communications satellites like Starlink; space stations such as the ISS; scientific satellites like the Hubble; Earth observation satellites from companies like Planet Labs, Umbra, and HawkEye 360; GPS; miniature CubeSats for education and research; and military/defense satellites.

Loading next visibility...
Identifier
60514, 2024-149AY
Orbit
SSO
Country
Flag of USUS
Related business
Manufacturer
Planet
Mission
Operational Commercial Imaging
Bus & Motor
CUBESAT 3U, Unknown motor
Mass
5.7 kg wet, 5.7 kg dry
Launch date (UTC)
2024-08-16 (2 years ago)
Launch vehicle
FALCON 9
Launch site
Air Force Western Test Range (AFWTR)
Object type
Payload
Rocket body
Debris
Shape & HBR
Box + 2 Pan, 1.0 m
Radar Cross Section
0.072 m², Medium (>0.1 m² and < 1m²)

Expand to show TLE details & history
Last TLE update: 16 hours ago

TLE from 16 hours ago
0 FLOCK 4BE 9
1 60514U 24149AY  26265.02514469  .00026777  00000-0  58596-3 0  9993
2 60514  97.3743 350.4089 0001523 315.4850  44.6275 15.44112371117249
Epoch: 2026-09-22T00:36Z
TLE epoch observation values (Epoch: 2026-09-22T00:36:12.501Z)
Latitude
-0.00008°
Longitude
-19.53973°
Altitude
436.373 km
Speed
7.65 km/s
True Right ascension
23h 21m 38s
True Declination
0° 00' 00"
Sunlit
Object was in full shadow at epoch
Visualization orbit readout
Latitude
Unknown
Longitude
Unknown
Altitude
Unknown
Speed
Unknown
Apparent Right ascension
Unknown
Apparent Declination
Unknown
Sunlit
N/A
Visualization observer readout
Local Sidereal Time
09:22:35
Azimuth
Unknown
Elevation
Unknown
Doppler factor
Unknown
Orbital elements
Apogee altitude
431.957 km
Perigee altitude
429.883 km
Semi-major axis
6,809.057 km
Eccentricity
0.00015
Inclination
97.3743°
RAAN
350.4089°
Arg. of periapsis
315.485°
True anomaly
44.63976°
Mean anomaly
44.6275°
Eccentric anomaly
44.63363°
Mean motion
3.86289 °/min
Orbital period
93.19 mins
BSTAR
0.00058596
Loading maneuver chart data...
Computing Atmospheric mass density...
Loading historical data...
Loading historical data...
Loading historical data...
Loading historical data...
Loading historical data...
Loading historical data...
Loading historical data...

Documentation

Showing up to 5 results
|